Location: Peebles
(55.6412°N, 3.1714°W)
Time: 14:31:57
(UTC+01:00)

FLOCK 4S 45 - Pass Details

Date: 04 July 2022
Orbit: 507 x 523 km, 97.4° (Epoch: 17 August)

Event Time Altitude Azimuth Distance (km) Brightness Sun altitude
Rises 23:00:23 0° 203° (SSW) 2,655 ? -6.3°
Reaches altitude 10° 23:02:56 10° 221° (SW) 1,771 ? -6.5°
Maximum altitude 23:05:47 20° 269° (W) 1,270 ? -6.7°
Drops below altitude 10° 23:08:39 10° 318° (NW) 1,780 ? -6.9°
Sets 23:11:14 0° 336° (NNW) 2,673 ? -7.1°
